Wind_Speed
25 25 25 25 25 24 25 24 23 24 24 23 24 24 24 24 24 23 22 21 21 20 20 20 19 19 18 17 17 17 17 17 17 16 16 16 16 16 17 17 17 17 18
26 27 26 26 26 25 25 25 24 24 24 24 25 25 25 25 25 24 24 23 22 22 22 22 21 21 20 20 20 20 19 19 19 19 19 20 20 20 20 20 20 20 21
26 28 27 27 27 27 26 26 26 26 25 25 26 26 27 26 25 24 24 23 24 23 23 23 23 23 23 23 22 22 22 22 22 22 22 22 23 23 23 23 23 23 24
27 28 29 28 29 29 28 28 27 27 26 26 26 26 26 26 26 25 24 25 25 24 24 25 25 24 25 24 24 24 24 24 24 24 25 25 25 25 25 26 26 26 27
27 28 28 28 29 30 29 29 28 27 27 27 26 25 26 27 27 26 25 25 25 25 26 26 26 25 26 26 26 26 26 27 27 27 27 28 28 28 29 29 29 29 30
26 26 26 27 29 29 29 29 29 29 28 28 27 26 26 27 28 28 26 26 27 27 27 27 28 27 27 27 28 28 28 29 29 30 30 30 30 31 31 31 32 32 33
26 27 28 27 26 26 27 29 30 29 28 28 28 27 27 27 29 29 29 29 29 29 29 29 29 29 29 29 30 30 30 31 32 33 33 33 33 33 33 34 34 35 35
25 25 27 27 26 25 26 27 29 30 30 30 28 28 28 29 29 30 31 30 30 31 31 31 31 31 32 32 31 31 32 34 35 35 35 36 36 36 36 36 36 37 38
25 24 25 25 26 26 26 26 27 29 30 30 29 30 30 30 30 30 31 32 32 32 33 32 32 33 34 35 34 34 35 36 37 37 37 37 38 38 38 39 39 39 40
26 26 26 25 25 26 26 27 26 27 28 28 29 29 30 31 31 31 32 33 33 33 34 35 35 35 36 37 37 38 38 38 38 38 38 38 39 39 40 40 40 40 41
26 26 26 26 26 26 26 27 27 27 27 28 29 30 32 32 32 33 34 34 34 34 34 35 36 36 37 37 37 37 37 38 38 39 39 39 40 40 40 40 40 41 41
26 26 26 27 27 27 27 27 28 29 28 28 28 29 31 31 32 33 34 34 35 34 34 34 34 36 36 37 37 37 38 38 38 39 40 40 40 39 39 40 40 41 42
26 26 27 28 28 28 28 28 27 28 28 28 28 28 29 30 31 32 33 33 34 35 34 34 35 35 36 36 37 37 37 38 38 39 39 39 39 39 40 41 42 43 44
27 28 28 28 28 29 29 28 27 27 27 28 28 28 29 30 30 32 32 32 33 33 34 35 35 35 36 35 35 36 36 37 38 38 39 40 40 40 42 42 43 44 45
28 28 29 28 28 28 28 28 28 28 28 29 29 28 28 28 28 29 31 31 32 32 32 33 33 33 34 34 34 35 36 37 37 38 39 39 40 41 42 42 43 44 44
28 29 29 29 29 29 29 29 29 29 28 28 28 29 28 28 28 28 29 30 31 32 32 32 33 33 34 34 34 35 36 37 37 38 39 40 40 40 41 41 42 42 43
27 28 28 28 28 29 30 29 29 28 28 28 29 29 29 30 30 30 31 32 32 33 32 32 33 33 34 34 35 36 37 37 38 38 39 39 39 39 39 39 39 39 39
26 27 27 27 28 28 28 28 27 27 28 29 29 29 29 29 30 31 32 31 31 31 31 32 33 33 33 34 34 35 36 37 37 37 37 37 37 36 36 37 37 36 36
26 25 25 25 25 25 25 25 27 27 28 29 29 29 29 29 30 30 31 30 31 31 32 32 32 33 33 33 34 35 35 35 35 35 34 35 35 35 35 35 34 34 33
23 23 23 24 24 23 24 24 25 25 27 27 27 27 27 28 29 29 29 30 31 31 31 31 31 31 32 32 33 33 33 33 32 32 32 32 33 33 33 33 32 32 31
21 21 21 21 22 22 23 23 24 24 24 25 26 26 26 27 27 28 28 28 28 28 29 30 30 30 31 31 31 31 31 31 31 31 31 31 31 31 30 29 29 29 28
19 20 21 20 21 21 22 22 23 23 24 24 25 25 25 26 25 25 25 26 26 26 27 28 28 29 29 29 30 30 30 30 30 29 28 28 28 28 27 27 26 26 26
17 17 17 18 18 19 20 21 22 21 21 22 22 21 21 22 22 23 23 24 24 24 25 26 26 27 27 27 28 28 27 26 26 26 26 25 25 24 24 24 23 23 23
13 13 13 14 15 16 16 17 17 17 17 18 18 19 20 21 21 21 21 21 21 22 22 23 23 24 24 24 24 24 23 22 23 23 22 22 22 21 21 21 20 20 20
10 10 11 11 12 12 13 13 13 14 15 15 16 17 17 18 18 18 19 19 19 20 21 21 21 21 20 20 20 20 20 20 20 20 19 19 19 18 18 18 18 18 18
8 9 9 9 10 11 10 10 10 11 11 12 13 14 14 15 15 15 15 16 17 17 17 17 17 17 17 17 17 17 17 18 17 17 17 16 16 16 17 17 17 17 17
Wind_Direction
256 258 259 259 261 259 258 259 260 259 260 261 261 261 258 254 253 253 252 252 251 249 249 250 250 252 253 254 254 255 256 259 262 265 267 268 266 266 268 269 269 269 269
258 259 260 262 261 260 258 259 260 260 260 262 262 260 259 256 254 254 254 253 251 251 250 251 251 253 254 255 256 257 257 259 262 265 266 267 267 268 269 270 271 271 271
260 260 260 261 261 260 259 259 260 262 262 262 262 260 257 255 255 254 254 251 251 251 251 251 252 253 254 256 257 258 258 260 262 265 266 268 268 269 270 270 271 272 272
261 260 259 260 259 259 259 259 260 260 261 261 261 260 257 253 254 252 251 250 249 251 253 253 254 255 254 256 258 259 260 261 263 265 267 268 269 269 270 271 272 273 273
262 259 257 258 259 258 257 256 257 259 260 260 258 257 255 254 253 251 249 249 249 251 252 254 255 255 254 256 258 261 263 264 265 266 267 269 269 269 270 271 272 273 274
264 259 258 261 260 258 256 255 257 258 258 259 258 255 254 253 252 252 250 249 249 251 251 254 254 254 254 255 258 261 263 264 266 268 269 269 269 270 270 271 272 274 274
263 261 262 264 261 258 255 254 254 253 255 257 258 255 254 253 252 252 251 247 247 250 250 252 252 253 253 254 257 260 262 264 267 268 269 269 271 272 272 272 273 274 274
264 264 263 262 258 258 256 253 251 251 254 256 256 256 255 253 253 252 251 248 247 249 249 250 251 252 254 255 258 260 262 264 266 268 268 270 271 271 272 273 274 275 275
264 263 263 260 258 256 255 254 250 250 252 253 255 255 256 255 253 251 249 249 248 250 249 249 251 253 255 256 257 258 261 263 265 267 269 270 272 273 273 274 275 276 276
261 260 262 260 258 256 254 253 253 253 251 252 254 255 255 253 252 251 252 251 251 251 250 251 251 253 256 256 258 259 261 264 267 268 269 270 272 274 275 275 276 276 276
260 259 260 259 257 255 254 254 253 254 253 254 254 255 253 254 254 254 254 252 253 252 253 255 256 257 258 259 260 262 264 267 270 271 272 272 273 275 276 277 277 276 277
259 259 257 256 256 255 256 254 253 253 254 255 255 254 254 256 254 253 251 250 252 254 253 254 258 258 260 262 264 266 269 272 272 274 274 275 276 276 277 278 278 279 280
258 257 256 254 255 256 256 256 254 253 253 254 254 255 256 256 253 250 252 251 252 254 255 256 258 261 263 265 267 269 271 273 274 275 277 278 278 279 279 280 280 281 282
258 257 255 254 255 255 256 256 254 253 252 253 254 254 255 256 253 251 252 251 252 254 256 258 260 262 264 266 269 269 271 272 273 276 277 278 279 280 281 282 282 283 284
261 258 256 255 254 255 256 256 254 254 254 253 253 254 255 253 254 252 251 252 254 257 259 260 262 264 265 267 269 270 272 274 277 279 279 280 281 282 283 284 284 285 286
260 258 256 254 253 255 255 256 256 256 255 254 253 253 251 251 253 252 251 253 255 258 259 260 263 265 269 271 272 274 277 279 280 281 281 281 282 283 285 286 287 289 289
260 259 259 258 257 257 257 256 256 255 255 256 257 256 252 252 254 255 257 258 259 260 262 265 267 270 273 275 276 278 280 281 282 283 283 284 285 285 287 289 290 290 291
261 261 260 260 259 259 259 257 256 256 257 257 258 257 257 258 259 259 261 263 264 265 267 269 271 273 275 278 280 281 282 283 283 284 285 286 287 288 289 290 290 291 291
264 264 262 261 260 259 258 257 257 257 257 257 258 259 259 260 263 264 264 266 267 269 269 272 274 276 278 279 280 282 283 284 285 286 287 287 288 289 290 290 290 290 290
264 263 262 261 261 260 260 259 260 261 260 259 260 261 262 263 265 266 268 269 270 271 274 276 277 278 278 279 280 282 284 285 286 286 287 288 289 289 289 289 290 290 290
260 262 263 261 260 261 262 261 262 263 263 262 263 263 263 264 266 268 270 271 272 273 275 276 277 278 279 280 282 283 284 285 286 286 288 289 289 289 289 289 289 290 290
262 263 262 260 260 260 262 263 263 263 264 264 265 266 266 266 269 270 272 273 274 275 276 277 278 279 280 281 283 284 285 284 286 287 288 289 288 289 289 289 289 290 290
265 265 263 262 262 262 263 264 265 264 265 265 267 269 270 270 271 272 274 275 276 277 278 278 279 279 280 282 283 284 284 285 286 287 288 288 288 288 289 290 290 291 292
266 265 264 266 264 264 264 266 267 267 268 266 267 271 272 273 271 272 274 276 277 279 280 280 280 280 281 283 283 283 284 285 285 287 287 287 287 288 290 291 292 294 295
269 269 267 268 266 268 271 272 272 272 271 272 272 274 274 274 272 273 275 278 280 281 281 282 283 283 283 284 285 286 285 286 287 287 287 288 289 291 292 294 295 296 297
275 276 274 273 270 270 272 272 275 277 276 276 278 279 279 278 279 279 279 281 282 284 284 285 286 287 287 287 287 287 288 288 288 288 287 289 292 294 295 296 297 298 298
Height
5872 5873 5873 5874 5875 5876 5876 5877 5878 5878 5879 5879 5880 5880 5881 5881 5882 5882 5883 5884 5885 5886 5887 5887 5888 5889 5889 5890 5890 5891 5891 5891 5891 5891 5891 5891 5890 5890 5890 5889 5889 5889 5888
5866 5867 5868 5869 5869 5870 5871 5871 5872 5873 5873 5874 5875 5875 5875 5876 5877 5877 5878 5879 5880 5881 5882 5883 5884 5884 5885 5886 5886 5886 5887 5887 5887 5887 5887 5887 5886 5886 5886 5885 5885 5884 5884
5860 5861 5862 5863 5863 5864 5865 5865 5866 5867 5868 5868 5869 5870 5870 5871 5871 5872 5873 5874 5875 5876 5877 5878 5879 5880 5880 5881 5881 5882 5882 5882 5882 5882 5882 5882 5882 5881 5881 5880 5880 5879 5879
5854 5854 5855 5856 5856 5857 5858 5860 5860 5861 5862 5862 5863 5864 5864 5865 5866 5867 5868 5869 5870 5871 5872 5873 5874 5875 5875 5876 5876 5876 5877 5877 5877 5877 5877 5876 5876 5876 5875 5875 5874 5873 5873
5848 5848 5848 5849 5850 5851 5852 5853 5854 5855 5856 5856 5857 5858 5859 5860 5861 5862 5863 5864 5865 5866 5867 5868 5868 5869 5870 5870 5871 5871 5871 5871 5871 5871 5871 5870 5870 5870 5869 5869 5868 5867 5866
5842 5842 5842 5843 5843 5844 5845 5846 5847 5848 5849 5850 5851 5852 5853 5854 5855 5856 5857 5858 5859 5860 5861 5862 5863 5863 5864 5864 5865 5865 5865 5865 5865 5865 5864 5864 5863 5863 5862 5861 5861 5860 5859
5836 5836 5836 5837 5837 5838 5838 5839 5840 5841 5843 5844 5845 5846 5847 5848 5849 5850 5851 5852 5853 5854 5855 5856 5856 5857 5857 5858 5858 5859 5859 5858 5858 5858 5857 5856 5856 5855 5854 5854 5853 5852 5851
5830 5830 5830 5830 5831 5832 5832 5832 5833 5834 5836 5837 5838 5839 5840 5842 5842 5843 5845 5846 5846 5847 5848 5849 5850 5850 5851 5851 5851 5852 5852 5851 5851 5850 5849 5849 5848 5847 5846 5845 5844 5843 5842
5824 5824 5824 5824 5825 5825 5825 5825 5827 5828 5829 5831 5832 5833 5833 5835 5836 5836 5837 5839 5840 5840 5841 5842 5842 5843 5844 5844 5844 5844 5844 5843 5843 5842 5841 5841 5839 5838 5837 5836 5835 5834 5833
5817 5818 5818 5818 5818 5819 5819 5819 5821 5821 5822 5823 5825 5825 5826 5828 5829 5829 5830 5831 5832 5833 5834 5835 5835 5835 5836 5836 5836 5836 5835 5835 5834 5833 5833 5832 5831 5829 5828 5827 5825 5824 5823
5810 5811 5812 5811 5812 5812 5813 5813 5814 5815 5816 5816 5817 5818 5819 5820 5821 5822 5823 5824 5825 5825 5826 5827 5827 5827 5828 5828 5828 5827 5827 5826 5825 5824 5824 5823 5821 5820 5819 5817 5816 5814 5813
5803 5804 5804 5805 5805 5806 5806 5807 5807 5808 5809 5810 5810 5811 5812 5813 5813 5814 5815 5816 5817 5818 5819 5819 5819 5819 5819 5819 5819 5819 5818 5817 5816 5815 5814 5813 5812 5810 5809 5807 5806 5804 5802
5796 5797 5797 5798 5799 5799 5800 5800 5801 5801 5802 5803 5804 5804 5805 5806 5806 5807 5808 5809 5810 5810 5811 5811 5811 5811 5811 5811 5811 5810 5809 5808 5807 5806 5805 5803 5802 5801 5799 5797 5796 5794 5792
5789 5790 5790 5791 5791 5792 5793 5794 5794 5795 5795 5796 5797 5797 5798 5799 5799 5800 5801 5802 5802 5803 5803 5804 5803 5803 5803 5803 5802 5801 5800 5799 5798 5797 5796 5794 5793 5791 5789 5787 5785 5783 5781
5782 5782 5783 5784 5784 5785 5786 5787 5787 5788 5788 5789 5790 5791 5791 5792 5792 5793 5794 5795 5796 5795 5795 5795 5795 5795 5794 5794 5794 5793 5792 5791 5789 5788 5786 5784 5783 5781 5779 5777 5775 5772 5770
5775 5775 5776 5777 5778 5778 5779 5780 5780 5781 5782 5783 5783 5784 5784 5785 5785 5786 5786 5787 5787 5788 5788 5787 5787 5787 5786 5786 5785 5784 5782 5781 5780 5778 5776 5775 5773 5771 5769 5766 5764 5761 5759
5769 5769 5769 5770 5771 5771 5772 5773 5773 5774 5774 5775 5776 5776 5777 5778 5778 5779 5779 5779 5780 5780 5779 5779 5779 5778 5778 5777 5776 5775 5773 5772 5770 5769 5767 5765 5763 5761 5759 5756 5754 5751 5749
5762 5762 5762 5763 5764 5764 5765 5766 5766 5767 5768 5768 5769 5769 5770 5771 5771 5771 5772 5772 5772 5771 5771 5771 5771 5770 5769 5768 5767 5766 5764 5763 5761 5759 5757 5755 5753 5751 5749 5747 5744 5742 5739
5755 5755 5756 5756 5757 5757 5758 5759 5760 5760 5761 5762 5762 5763 5763 5764 5764 5764 5764 5764 5764 5764 5764 5763 5762 5761 5760 5760 5758 5757 5755 5754 5752 5750 5748 5747 5745 5743 5740 5738 5736 5733 5731
5748 5749 5749 5750 5750 5751 5752 5752 5753 5754 5754 5755 5756 5756 5756 5757 5757 5757 5757 5757 5757 5756 5756 5755 5754 5753 5752 5751 5750 5749 5747 5745 5744 5742 5740 5738 5736 5734 5732 5730 5728 5726 5723
5742 5743 5743 5744 5744 5745 5745 5746 5747 5747 5748 5748 5749 5749 5750 5750 5750 5750 5750 5749 5749 5748 5748 5747 5746 5745 5744 5743 5742 5740 5739 5737 5736 5734 5732 5730 5728 5726 5724 5722 5720 5718 5715
5737 5737 5738 5738 5738 5739 5739 5740 5740 5741 5741 5742 5742 5743 5743 5743 5743 5743 5743 5742 5742 5742 5741 5740 5739 5738 5737 5736 5734 5733 5731 5730 5728 5726 5724 5722 5720 5718 5716 5715 5713 5710 5708
5731 5732 5732 5732 5733 5733 5734 5734 5735 5735 5735 5735 5736 5736 5736 5736 5736 5736 5736 5736 5735 5735 5734 5733 5732 5731 5730 5728 5727 5725 5724 5722 5721 5719 5717 5716 5714 5712 5710 5708 5706 5704 5702
5727 5727 5727 5727 5728 5728 5729 5729 5729 5729 5729 5729 5730 5730 5730 5730 5730 5730 5730 5729 5729 5728 5727 5726 5726 5724 5723 5722 5720 5719 5718 5716 5715 5713 5711 5710 5708 5706 5704 5702 5701 5699 5697
5723 5723 5723 5723 5724 5724 5724 5724 5725 5724 5724 5724 5725 5725 5725 5725 5725 5724 5724 5724 5723 5722 5721 5720 5719 5718 5717 5716 5714 5713 5712 5711 5709 5708 5706 5705 5703 5701 5699 5698 5696 5694 5692
5720 5720 5720 5720 5720 5720 5721 5721 5721 5721 5720 5720 5720 5720 5720 5720 5720 5719 5719 5718 5717 5717 5716 5715 5714 5713 5712 5710 5709 5708 5707 5706 5704 5703 5701 5700 5698 5697 5695 5693 5691 5689 5688